Location: Vancouver
(49.2500°N, 123.1330°W)
Time: 00:36:40
(UTC-07:00)

deb Explorer IX - Visible Passes

Search period start: 01 September 2014 00:00
Search period end: 11 September 2014 00:00
Orbit: 559 x 1218 km, 38.8° (Epoch: 31 August)

Date Brightness Start Highest point End Pass type
(mag) Time Alt. Az. Time Alt. Az. Time Alt. Az.
01 Sep ? 02:55:46 17° SE 02:55:46 17° SE 02:57:20 10° ESE visible
01 Sep ? 04:38:28 25° SSW 04:40:16 30° S 04:44:57 10° SE visible
02 Sep ? 02:53:35 17° ESE 02:53:35 17° ESE 02:55:06 10° ESE visible
02 Sep ? 04:36:17 27° SSW 04:37:48 30° S 04:42:32 10° SE visible
03 Sep ? 02:51:27 16° ESE 02:51:27 16° ESE 02:52:48 10° ESE visible
03 Sep ? 04:34:10 27° SSW 04:35:18 29° S 04:40:05 10° SE visible
04 Sep ? 02:49:26 15° ESE 02:49:26 15° ESE 02:50:27 10° ESE visible
04 Sep ? 04:32:09 28° SSW 04:32:46 28° SSW 04:37:34 10° SE visible
05 Sep ? 02:47:31 13° ESE 02:47:31 13° ESE 02:48:04 10° ESE visible
05 Sep ? 04:30:14 26° SSW 04:30:14 26° SSW 04:34:59 10° SE visible
06 Sep ? 04:28:29 24° S 04:28:29 24° S 04:32:19 10° SSE visible
07 Sep ? 04:26:54 19° S 04:26:54 19° S 04:29:33 10° SSE visible
08 Sep ? 04:25:30 14° S 04:25:30 14° S 04:26:40 10° SSE visible
09 Sep ? 21:03:30 10° SSE 21:04:53 11° SSE 21:04:53 11° SSE visible
09 Sep ? 22:47:09 10° SSW 22:47:39 12° SSW 22:47:39 12° SSW visible
10 Sep ? 20:59:19 10° S 21:03:16 15° SE 21:03:27 15° SE visible
10 Sep ? 22:44:13 10° SW 22:46:11 17° SSW 22:46:11 17° SSW visible
